| time (UTC) | temp F | wind direction | speed MPH | gust MPH | rain 1hr in | rain 24hr in | rain mn in | humidity % | barometer mb |
| 20260902155045 | 64 | 329 | 1.0 | 6.0 | 0.00 | 0.00 | 0.00 | 66 | 1014.8 |
| 20260902154541 | 64 | 262 | 1.0 | 5.0 | 0.00 | 0.00 | 0.00 | 68 | 1014.7 |
| 20260902154040 | 63 | 328 | 2.0 | 5.0 | 0.00 | 0.00 | 0.00 | 68 | 1014.7 |
| 20260902153539 | 63 | 246 | 2.0 | 5.0 | 0.00 | 0.00 | 0.00 | 70 | 1014.7 |
| 20260902153039 | 63 | 257 | 2.0 | 6.0 | 0.00 | 0.00 | 0.00 | 71 | 1014.7 |
| 20260902152537 | 62 | 273 | 2.0 | 6.0 | 0.00 | 0.00 | 0.00 | 71 | 1014.6 |
| 20260902152037 | 62 | 273 | 3.0 | 8.0 | 0.00 | 0.00 | 0.00 | 72 | 1014.6 |
| 20260902151545 | 61 | 230 | 4.0 | 8.0 | 0.00 | 0.00 | 0.00 | 73 | 1014.6 |
| 20260902151037 | 61 | 307 | 3.0 | 8.0 | 0.00 | 0.00 | 0.00 | 75 | 1014.6 |
| 20260902150535 | 61 | 347 | 3.0 | 7.0 | 0.00 | 0.00 | 0.00 | 75 | 1014.6 |
| 20260902150036 | 60 | 300 | 3.0 | 7.0 | 0.00 | 0.00 | 0.00 | 75 | 1014.6 |
| 20260902145534 | 60 | 268 | 3.0 | 6.0 | 0.00 | 0.00 | 0.00 | 76 | 1014.6 |
| 20260902145033 | 60 | 303 | 2.0 | 8.0 | 0.00 | 0.00 | 0.00 | 76 | 1014.4 |
| 20260902144531 | 60 | 341 | 3.0 | 8.0 | 0.00 | 0.00 | 0.00 | 77 | 1014.3 |
| 20260902144031 | 59 | 312 | 1.0 | 6.0 | 0.00 | 0.00 | 0.00 | 78 | 1014.3 |
| 20260902143534 | 59 | 285 | 2.0 | 6.0 | 0.00 | 0.00 | 0.00 | 79 | 1014.2 |
| 20260902143030 | 59 | 243 | 2.0 | 4.0 | 0.00 | 0.00 | 0.00 | 79 | 1014.2 |
| 20260902142529 | 58 | 286 | 1.0 | 7.0 | 0.00 | 0.00 | 0.00 | 80 | 1014.1 |
| 20260902142027 | 58 | 240 | 2.0 | 7.0 | 0.00 | 0.00 | 0.00 | 80 | 1014.0 |
| 20260902141535 | 58 | 289 | 2.0 | 6.0 | 0.00 | 0.00 | 0.00 | 80 | 1013.9 |
| 20260902141025 | 58 | 297 | 2.0 | 7.0 | 0.00 | 0.00 | 0.00 | 80 | 1013.8 |
| 20260902140524 | 58 | 262 | 3.0 | 7.0 | 0.00 | 0.00 | 0.00 | 80 | 1013.8 |
| 20260902140024 | 58 | 252 | 3.0 | 7.0 | 0.00 | 0.00 | 0.00 | 80 | 1013.8 |
| 20260902135523 | 57 | 279 | 2.0 | 7.0 | 0.00 | 0.00 | 0.00 | 80 | 1013.7 |
| 20260902135022 | 57 | 288 | 2.0 | 6.0 | 0.00 | 0.00 | 0.00 | 80 | 1013.6 |
| 20260902134527 | 57 | 286 | 3.0 | 6.0 | 0.00 | 0.00 | 0.00 | 81 | 1013.6 |
| 20260902134020 | 57 | 274 | 2.0 | 6.0 | 0.00 | 0.00 | 0.00 | 81 | 1013.5 |
| 20260902133519 | 57 | 287 | 2.0 | 8.0 | 0.00 | 0.00 | 0.00 | 81 | 1013.5 |
| 20260902133019 | 57 | 267 | 3.0 | 8.0 | 0.00 | 0.00 | 0.00 | 80 | 1013.5 |
| 20260902132520 | 57 | 268 | 4.0 | 8.0 | 0.00 | 0.00 | 0.00 | 80 | 1013.5 |
| 20260902132018 | 58 | 257 | 2.0 | 7.0 | 0.00 | 0.00 | 0.00 | 80 | 1013.4 |
| 20260902131517 | 58 | 251 | 3.0 | 7.0 | 0.00 | 0.00 | 0.00 | 80 | 1013.3 |
| 20260902131019 | 58 | 281 | 3.0 | 7.0 | 0.00 | 0.00 | 0.00 | 79 | 1013.3 |
| 20260902130517 | 58 | 319 | 3.0 | 7.0 | 0.00 | 0.00 | 0.00 | 79 | 1013.4 |
| 20260902130016 | 58 | 273 | 1.0 | 4.0 | 0.00 | 0.00 | 0.00 | 79 | 1013.4 |
| 20260902125516 | 58 | 299 | 1.0 | 4.0 | 0.00 | 0.00 | 0.00 | 79 | 1013.3 |
| 20260902125020 | 58 | 248 | 2.0 | 4.0 | 0.00 | 0.00 | 0.00 | 79 | 1013.2 |
| 20260902124517 | 58 | 272 | 0.0 | 6.0 | 0.00 | 0.00 | 0.00 | 79 | 1013.2 |
| 20260902124015 | 58 | 286 | 2.0 | 6.0 | 0.00 | 0.00 | 0.00 | 79 | 1013.2 |
| 20260902123515 | 58 | 295 | 2.0 | 6.0 | 0.00 | 0.00 | 0.00 | 79 | 1013.1 |
| 20260902123020 | 58 | 270 | 2.0 | 6.0 | 0.00 | 0.00 | 0.00 | 79 | 1013.2 |
| 20260902122518 | 58 | 277 | 2.0 | 5.0 | 0.00 | 0.00 | 0.00 | 79 | 1013.2 |
| 20260902122014 | 58 | 294 | 2.0 | 6.0 | 0.00 | 0.00 | 0.00 | 78 | 1013.2 |
| 20260902121515 | 58 | 283 | 2.0 | 4.0 | 0.00 | 0.00 | 0.00 | 78 | 1013.2 |
| 20260902121013 | 58 | 289 | 2.0 | 4.0 | 0.00 | 0.00 | 0.00 | 77 | 1013.2 |
| 20260902120513 | 58 | 263 | 2.0 | 3.0 | 0.00 | 0.00 | 0.00 | 77 | 1013.2 |
| 20260902120013 | 58 | 282 | 2.0 | 4.0 | 0.00 | 0.00 | 0.00 | 76 | 1013.3 |
| 20260902115516 | 58 | 267 | 1.0 | 4.0 | 0.00 | 0.00 | 0.00 | 76 | 1013.3 |
| 20260902115013 | 58 | 279 | 2.0 | 4.0 | 0.00 | 0.00 | 0.00 | 76 | 1013.3 |
| 20260902114514 | 58 | 270 | 1.0 | 4.0 | 0.00 | 0.00 | 0.00 | 76 | 1013.4 |
| 20260902114011 | 59 | 295 | 1.0 | 3.0 | 0.00 | 0.00 | 0.00 | 75 | 1013.4 |
| 20260902113510 | 59 | 285 | 1.0 | 4.0 | 0.00 | 0.00 | 0.00 | 75 | 1013.4 |
| 20260902113010 | 59 | 324 | 2.0 | 4.0 | 0.00 | 0.00 | 0.00 | 75 | 1013.4 |
| 20260902112510 | 59 | 301 | 2.0 | 4.0 | 0.00 | 0.00 | 0.00 | 75 | 1013.5 |
| 20260902112009 | 59 | 262 | 2.0 | 4.0 | 0.00 | 0.00 | 0.00 | 74 | 1013.5 |
| 20260902111508 | 59 | 275 | 2.0 | 4.0 | 0.00 | 0.00 | 0.00 | 74 | 1013.5 |
| 20260902111008 | 59 | 297 | 1.0 | 5.0 | 0.00 | 0.00 | 0.00 | 74 | 1013.5 |
| 20260902110509 | 59 | 313 | 2.0 | 5.0 | 0.00 | 0.00 | 0.00 | 73 | 1013.5 |
| 20260902110017 | 59 | 262 | 2.0 | 5.0 | 0.00 | 0.00 | 0.00 | 73 | 1013.5 |
| 20260902105506 | 59 | 320 | 2.0 | 7.0 | 0.00 | 0.00 | 0.00 | 73 | 1013.4 |
| 20260902105007 | 60 | 280 | 2.0 | 7.0 | 0.00 | 0.00 | 0.00 | 72 | 1013.5 |
| 20260902104517 | 60 | 305 | 2.0 | 7.0 | 0.00 | 0.00 | 0.00 | 72 | 1013.5 |
| 20260902104005 | 60 | 293 | 3.0 | 7.0 | 0.00 | 0.00 | 0.00 | 72 | 1013.4 |
| 20260902103506 | 60 | 278 | 3.0 | 7.0 | 0.00 | 0.00 | 0.00 | 72 | 1013.4 |
| 20260902103003 | 60 | 262 | 2.0 | 7.0 | 0.00 | 0.00 | 0.00 | 71 | 1013.3 |
| 20260902102503 | 60 | 287 | 2.0 | 7.0 | 0.00 | 0.00 | 0.00 | 71 | 1013.4 |
| 20260902102002 | 60 | 264 | 4.0 | 7.0 | 0.00 | 0.00 | 0.00 | 71 | 1013.4 |
| 20260902101502 | 60 | 318 | 2.0 | 6.0 | 0.00 | 0.00 | 0.00 | 71 | 1013.4 |
| 20260902101001 | 60 | 306 | 2.0 | 6.0 | 0.00 | 0.00 | 0.00 | 70 | 1013.5 |
| 20260902100501 | 60 | 314 | 2.0 | 7.0 | 0.00 | 0.00 | 0.00 | 70 | 1013.3 |
| 20260902100128 | 60 | 316 | 3.0 | 7.0 | 0.00 | 0.00 | 0.00 | 70 | 1013.3 |
| 20260902095601 | 60 | 337 | 3.0 | 8.0 | 0.00 | 0.00 | 0.00 | 70 | 1013.3 |
| 20260902095104 | 60 | 295 | 3.0 | 7.0 | 0.00 | 0.00 | 0.00 | 69 | 1013.2 |
| 20260902094558 | 60 | 305 | 3.0 | 8.0 | 0.00 | 0.00 | 0.00 | 69 | 1013.2 |
| 20260902094057 | 61 | 305 | 3.0 | 8.0 | 0.00 | 0.00 | 0.00 | 69 | 1013.2 |
| 20260902093557 | 61 | 287 | 3.0 | 8.0 | 0.00 | 0.00 | 0.00 | 69 | 1013.1 |
| 20260902093112 | 61 | 293 | 3.0 | 8.0 | 0.00 | 0.00 | 0.00 | 69 | 1013.1 |
| 20260902092556 | 61 | 326 | 3.0 | 8.0 | 0.00 | 0.00 | 0.00 | 69 | 1013.1 |
| 20260902092056 | 61 | 289 | 2.0 | 9.0 | 0.00 | 0.00 | 0.00 | 69 | 1013.2 |
| 20260902091601 | 61 | 334 | 3.0 | 9.0 | 0.00 | 0.00 | 0.00 | 69 | 1013.3 |
| 20260902091055 | 61 | 297 | 2.0 | 5.0 | 0.00 | 0.00 | 0.00 | 69 | 1013.3 |
| 20260902090555 | 61 | 15 | 2.0 | 5.0 | 0.00 | 0.00 | 0.00 | 69 | 1013.3 |
| 20260902090101 | 61 | 291 | 2.0 | 5.0 | 0.00 | 0.00 | 0.00 | 69 | 1013.3 |
| 20260902085557 | 61 | 301 | 1.0 | 4.0 | 0.00 | 0.00 | 0.00 | 68 | 1013.3 |
| 20260902085055 | 61 | 323 | 1.0 | 7.0 | 0.00 | 0.00 | 0.00 | 68 | 1013.2 |
| 20260902084602 | 61 | 319 | 2.0 | 6.0 | 0.00 | 0.00 | 0.00 | 68 | 1013.4 |
| 20260902084053 | 61 | 323 | 2.0 | 4.0 | 0.00 | 0.00 | 0.00 | 68 | 1013.3 |
| 20260902083552 | 61 | 306 | 1.0 | 4.0 | 0.00 | 0.00 | 0.00 | 68 | 1013.3 |
| 20260902083105 | 61 | 308 | 2.0 | 6.0 | 0.00 | 0.00 | 0.00 | 68 | 1013.3 |
| 20260902082551 | 61 | 301 | 3.0 | 6.0 | 0.00 | 0.00 | 0.00 | 68 | 1013.4 |
| 20260902082051 | 61 | 289 | 3.0 | 7.0 | 0.00 | 0.00 | 0.00 | 68 | 1013.4 |
| 20260902081610 | 61 | 310 | 3.0 | 6.0 | 0.00 | 0.00 | 0.00 | 67 | 1013.5 |
| 20260902081051 | 61 | 325 | 2.0 | 6.0 | 0.00 | 0.00 | 0.00 | 67 | 1013.5 |
| 20260902080550 | 62 | 330 | 3.0 | 6.0 | 0.00 | 0.00 | 0.00 | 67 | 1013.4 |
| 20260902080057 | 62 | 280 | 3.0 | 8.0 | 0.00 | 0.00 | 0.00 | 67 | 1013.5 |
| 20260902075548 | 62 | 337 | 3.0 | 8.0 | 0.00 | 0.00 | 0.00 | 67 | 1013.5 |
| 20260902075048 | 62 | 280 | 3.0 | 7.0 | 0.00 | 0.00 | 0.00 | 66 | 1013.5 |
| 20260902074547 | 62 | 318 | 3.0 | 11.0 | 0.00 | 0.00 | 0.00 | 66 | 1013.4 |
| 20260902074047 | 62 | 301 | 4.0 | 11.0 | 0.00 | 0.00 | 0.00 | 66 | 1013.4 |
| 20260902073546 | 62 | 312 | 3.0 | 9.0 | 0.00 | 0.00 | 0.00 | 66 | 1013.4 |
| 20260902073046 | 62 | 296 | 4.0 | 9.0 | 0.00 | 0.00 | 0.00 | 66 | 1013.3 |
| 20260902072544 | 62 | 354 | 4.0 | 9.0 | 0.00 | 0.00 | 0.00 | 66 | 1013.4 |
| 20260902072046 | 63 | 341 | 3.0 | 10.0 | 0.00 | 0.00 | 0.00 | 65 | 1013.4 |
| 20260902071549 | 63 | 324 | 4.0 | 10.0 | 0.00 | 0.00 | 0.00 | 65 | 1013.4 |
| 20260902071043 | 63 | 253 | 3.0 | 11.0 | 0.00 | 0.00 | 0.00 | 65 | 1013.4 |
| 20260902070542 | 63 | 319 | 6.0 | 11.0 | 0.00 | 0.00 | 0.00 | 65 | 1013.4 |
| 20260902070042 | 63 | 336 | 5.0 | 10.0 | 0.00 | 0.00 | 0.00 | 64 | 1013.4 |
| 20260902065542 | 63 | 342 | 5.0 | 13.0 | 0.00 | 0.00 | 0.00 | 64 | 1013.4 |
| 20260902065045 | 63 | 328 | 4.0 | 13.0 | 0.00 | 0.00 | 0.00 | 63 | 1013.4 |
| 20260902064542 | 63 | 340 | 5.0 | 11.0 | 0.00 | 0.00 | 0.00 | 63 | 1013.4 |
| 20260902064041 | 63 | 348 | 5.0 | 11.0 | 0.00 | 0.00 | 0.00 | 63 | 1013.4 |
| 20260902063541 | 64 | 339 | 5.0 | 10.0 | 0.00 | 0.00 | 0.00 | 63 | 1013.4 |
| 20260902063101 | 64 | 345 | 4.0 | 13.0 | 0.00 | 0.00 | 0.00 | 62 | 1013.4 |
| 20260902062541 | 64 | 298 | 7.0 | 13.0 | 0.00 | 0.00 | 0.00 | 62 | 1013.4 |
| 20260902062041 | 64 | 341 | 6.0 | 15.0 | 0.00 | 0.00 | 0.00 | 61 | 1013.4 |
| 20260902061550 | 64 | 324 | 6.0 | 13.0 | 0.00 | 0.00 | 0.00 | 61 | 1013.4 |
| 20260902061041 | 64 | 350 | 6.0 | 13.0 | 0.00 | 0.00 | 0.00 | 60 | 1013.3 |
| 20260902060540 | 64 | 313 | 4.0 | 13.0 | 0.00 | 0.00 | 0.00 | 60 | 1013.4 |
| 20260902060054 | 64 | 345 | 5.0 | 13.0 | 0.00 | 0.00 | 0.00 | 60 | 1013.4 |
| 20260902055540 | 65 | 354 | 6.0 | 13.0 | 0.00 | 0.00 | 0.00 | 59 | 1013.4 |
| 20260902055039 | 65 | 8 | 3.0 | 13.0 | 0.00 | 0.00 | 0.00 | 59 | 1013.3 |
| 20260902054543 | 65 | 320 | 7.0 | 13.0 | 0.00 | 0.00 | 0.00 | 59 | 1013.3 |
| 20260902054043 | 65 | 326 | 5.0 | 11.0 | 0.00 | 0.00 | 0.00 | 59 | 1013.4 |
| 20260902053539 | 65 | 342 | 5.0 | 10.0 | 0.00 | 0.00 | 0.00 | 58 | 1013.4 |
| 20260902053042 | 65 | 314 | 5.0 | 13.0 | 0.00 | 0.00 | 0.00 | 58 | 1013.3 |
| 20260902052539 | 66 | 328 | 5.0 | 18.0 | 0.00 | 0.00 | 0.00 | 57 | 1013.4 |
| 20260902052039 | 66 | 276 | 9.0 | 18.0 | 0.00 | 0.00 | 0.00 | 57 | 1013.3 |
| 20260902051541 | 66 | 285 | 6.0 | 17.0 | 0.00 | 0.00 | 0.00 | 57 | 1013.4 |
| 20260902051039 | 66 | 354 | 7.0 | 17.0 | 0.00 | 0.00 | 0.00 | 56 | 1013.4 |
| 20260902050539 | 66 | 310 | 4.0 | 13.0 | 0.00 | 0.00 | 0.00 | 56 | 1013.4 |
| 20260902050039 | 66 | 343 | 6.0 | 13.0 | 0.00 | 0.00 | 0.00 | 55 | 1013.2 |
| 20260902045541 | 67 | 295 | 5.0 | 15.0 | 0.00 | 0.00 | 0.00 | 55 | 1013.2 |
| 20260902045039 | 67 | 311 | 5.0 | 12.0 | 0.00 | 0.00 | 0.00 | 55 | 1013.2 |
| 20260902044544 | 67 | 328 | 6.0 | 16.0 | 0.00 | 0.00 | 0.00 | 55 | 1013.1 |
| 20260902044038 | 67 | 264 | 8.0 | 16.0 | 0.00 | 0.00 | 0.00 | 54 | 1013.0 |
| 20260902043537 | 67 | 315 | 5.0 | 11.0 | 0.00 | 0.00 | 0.00 | 54 | 1013.0 |
| 20260902043038 | 68 | 330 | 6.0 | 13.0 | 0.00 | 0.00 | 0.00 | 54 | 1012.9 |
| 20260902042538 | 68 | 304 | 8.0 | 15.0 | 0.00 | 0.00 | 0.00 | 53 | 1012.9 |
| 20260902042038 | 68 | 287 | 5.0 | 18.0 | 0.00 | 0.00 | 0.00 | 52 | 1012.7 |
| 20260902041540 | 68 | 320 | 7.0 | 18.0 | 0.00 | 0.00 | 0.00 | 52 | 1012.6 |
| 20260902041037 | 69 | 283 | 5.0 | 15.0 | 0.00 | 0.00 | 0.00 | 52 | 1012.3 |
| 20260902040537 | 69 | 345 | 5.0 | 15.0 | 0.00 | 0.00 | 0.00 | 51 | 1012.3 |
| 20260902040038 | 69 | 321 | 4.0 | 13.0 | 0.00 | 0.00 | 0.00 | 51 | 1012.2 |
| 20260902035536 | 70 | 328 | 7.0 | 15.0 | 0.00 | 0.00 | 0.00 | 50 | 1012.1 |
| 20260902035038 | 70 | 272 | 6.0 | 19.0 | 0.00 | 0.00 | 0.00 | 49 | 1012.0 |
| 20260902034537 | 71 | 335 | 7.0 | 19.0 | 0.00 | 0.00 | 0.00 | 49 | 1011.8 |
| 20260902034037 | 71 | 312 | 5.0 | 12.0 | 0.00 | 0.00 | 0.00 | 49 | 1011.7 |
| 20260902033536 | 72 | 266 | 5.0 | 10.0 | 0.00 | 0.00 | 0.00 | 48 | 1011.6 |
| 20260902033036 | 72 | 35 | 3.0 | 10.0 | 0.00 | 0.00 | 0.00 | 47 | 1011.5 |
| 20260902032540 | 72 | 308 | 4.0 | 10.0 | 0.00 | 0.00 | 0.00 | 47 | 1011.4 |
| 20260902032035 | 73 | 311 | 3.0 | 9.0 | 0.00 | 0.00 | 0.00 | 46 | 1011.4 |
| 20260902031542 | 73 | 310 | 2.0 | 10.0 | 0.00 | 0.00 | 0.00 | 45 | 1011.2 |
| 20260902031036 | 73 | 312 | 4.0 | 10.0 | 0.00 | 0.00 | 0.00 | 44 | 1011.1 |
| 20260902030536 | 73 | 347 | 1.0 | 9.0 | 0.00 | 0.00 | 0.00 | 44 | 1011.1 |
| 20260902030037 | 73 | 313 | 3.0 | 9.0 | 0.00 | 0.00 | 0.00 | 44 | 1011.1 |
| 20260902025535 | 73 | 324 | 1.0 | 9.0 | 0.00 | 0.00 | 0.00 | 44 | 1011.0 |
| 20260902025035 | 73 | 272 | 3.0 | 9.0 | 0.00 | 0.00 | 0.00 | 44 | 1010.9 |
| 20260902024536 | 73 | 269 | 4.0 | 12.0 | 0.00 | 0.00 | 0.00 | 43 | 1010.9 |
| 20260902024034 | 73 | 276 | 8.0 | 12.0 | 0.00 | 0.00 | 0.00 | 42 | 1010.8 |
| 20260902023534 | 74 | 228 | 7.0 | 12.0 | 0.00 | 0.00 | 0.00 | 41 | 1010.8 |
| 20260902023034 | 75 | 304 | 6.0 | 11.0 | 0.00 | 0.00 | 0.00 | 40 | 1010.7 |
| 20260902022537 | 75 | 253 | 5.0 | 14.0 | 0.00 | 0.00 | 0.00 | 39 | 1010.6 |
| 20260902022034 | 76 | 227 | 6.0 | 14.0 | 0.00 | 0.00 | 0.00 | 37 | 1010.6 |
| 20260902021543 | 77 | 285 | 6.0 | 12.0 | 0.00 | 0.00 | 0.00 | 35 | 1010.5 |
| 20260902021035 | 78 | 314 | 3.0 | 5.0 | 0.00 | 0.00 | 0.00 | 36 | 1010.5 |
| 20260902020534 | 78 | 333 | 2.0 | 5.0 | 0.00 | 0.00 | 0.00 | 36 | 1010.4 |
| 20260902020039 | 78 | 14 | 1.0 | 6.0 | 0.00 | 0.00 | 0.00 | 36 | 1010.3 |
| 20260902015533 | 78 | 345 | 1.0 | 5.0 | 0.00 | 0.00 | 0.00 | 35 | 1010.3 |
| 20260902015034 | 79 | 316 | 1.0 | 5.0 | 0.00 | 0.00 | 0.00 | 35 | 1010.4 |
| 20260902014546 | 79 | 295 | 3.0 | 5.0 | 0.00 | 0.00 | 0.00 | 35 | 1010.4 |
| 20260902014035 | 79 | 308 | 2.0 | 5.0 | 0.00 | 0.00 | 0.00 | 35 | 1010.3 |
| 20260902013533 | 79 | 335 | 2.0 | 5.0 | 0.00 | 0.00 | 0.00 | 35 | 1010.3 |
| 20260902013033 | 79 | 335 | 3.0 | 5.0 | 0.00 | 0.00 | 0.00 | 35 | 1010.2 |
| 20260902012532 | 80 | 322 | 2.0 | 6.0 | 0.00 | 0.00 | 0.00 | 35 | 1010.2 |
| 20260902012032 | 80 | 32 | 3.0 | 6.0 | 0.00 | 0.00 | 0.00 | 35 | 1010.2 |
| 20260902011535 | 80 | 311 | 3.0 | 8.0 | 0.00 | 0.00 | 0.00 | 35 | 1010.2 |
| 20260902011032 | 80 | 347 | 3.0 | 8.0 | 0.00 | 0.00 | 0.00 | 35 | 1010.2 |
| 20260902010531 | 80 | 297 | 3.0 | 8.0 | 0.00 | 0.00 | 0.00 | 35 | 1010.2 |
| 20260902010032 | 79 | 290 | 4.0 | 12.0 | 0.00 | 0.00 | 0.00 | 35 | 1010.3 |
| 20260902005536 | 80 | 293 | 6.0 | 12.0 | 0.00 | 0.00 | 0.00 | 35 | 1010.3 |
| 20260902005032 | 80 | 324 | 3.0 | 9.0 | 0.00 | 0.00 | 0.00 | 35 | 1010.3 |
| 20260902004532 | 80 | 272 | 2.0 | 8.0 | 0.00 | 0.00 | 0.00 | 35 | 1010.4 |
| 20260902004031 | 80 | 332 | 3.0 | 8.0 | 0.00 | 0.00 | 0.00 | 34 | 1010.3 |
| 20260902003531 | 80 | 324 | 4.0 | 7.0 | 0.00 | 0.00 | 0.00 | 34 | 1010.3 |
| 20260902003032 | 81 | 302 | 2.0 | 8.0 | 0.00 | 0.00 | 0.00 | 34 | 1010.3 |
| 20260902002530 | 80 | 276 | 3.0 | 9.0 | 0.00 | 0.00 | 0.00 | 33 | 1010.2 |
| 20260902002032 | 81 | 243 | 5.0 | 9.0 | 0.00 | 0.00 | 0.00 | 33 | 1010.2 |
| 20260902001531 | 81 | 272 | 3.0 | 8.0 | 0.00 | 0.00 | 0.00 | 33 | 1010.2 |
| 20260902001030 | 81 | 336 | 3.0 | 9.0 | 0.00 | 0.00 | 0.00 | 33 | 1010.2 |
| 20260902000530 | 82 | 262 | 5.0 | 9.0 | 0.00 | 0.00 | 0.00 | 33 | 1010.2 |
| 20260902000039 | 82 | 324 | 2.0 | 7.0 | 0.00 | 0.00 | 0.00 | 33 | 1010.2 |
| 20260901235531 | 82 | 102 | 1.0 | 7.0 | 0.00 | 0.00 | 0.00 | 32 | 1010.3 |
| 20260901235029 | 82 | 216 | 2.0 | 9.0 | 0.00 | 0.00 | 0.00 | 32 | 1010.3 |
| 20260901234546 | 81 | 264 | 2.0 | 10.0 | 0.00 | 0.00 | 0.00 | 33 | 1010.4 |
| 20260901234028 | 81 | 258 | 5.0 | 11.0 | 0.00 | 0.00 | 0.00 | 33 | 1010.5 |
| 20260901233528 | 81 | 223 | 5.0 | 11.0 | 0.00 | 0.00 | 0.00 | 33 | 1010.5 |
| 20260901233028 | 81 | 295 | 2.0 | 9.0 | 0.00 | 0.00 | 0.00 | 33 | 1010.6 |
| 20260901232532 | 81 | 232 | 2.0 | 11.0 | 0.00 | 0.00 | 0.00 | 33 | 1010.7 |
| 20260901232028 | 81 | 162 | 3.0 | 11.0 | 0.00 | 0.00 | 0.00 | 33 | 1010.7 |
| 20260901231533 | 81 | 274 | 1.0 | 9.0 | 0.00 | 0.00 | 0.00 | 34 | 1010.8 |
| 20260901231027 | 80 | 272 | 3.0 | 9.0 | 0.00 | 0.00 | 0.00 | 34 | 1010.8 |
| 20260901230527 | 81 | 273 | 5.0 | 8.0 | 0.00 | 0.00 | 0.00 | 33 | 1010.8 |
| 20260901230030 | 80 | 276 | 4.0 | 9.0 | 0.00 | 0.00 | 0.00 | 35 | 1010.8 |
| 20260901225531 | 80 | 281 | 2.0 | 12.0 | 0.00 | 0.00 | 0.00 | 34 | 1010.9 |
| 20260901225026 | 81 | 274 | 5.0 | 12.0 | 0.00 | 0.00 | 0.00 | 34 | 1010.9 |
| 20260901224525 | 81 | 256 | 2.0 | 8.0 | 0.00 | 0.00 | 0.00 | 34 | 1010.9 |
| 20260901224024 | 80 | 354 | 2.0 | 10.0 | 0.00 | 0.00 | 0.00 | 35 | 1010.9 |
| 20260901223524 | 79 | 148 | 1.0 | 11.0 | 0.00 | 0.00 | 0.00 | 35 | 1010.9 |
| 20260901223024 | 79 | 271 | 4.0 | 11.0 | 0.00 | 0.00 | 0.00 | 36 | 1010.9 |
| 20260901222524 | 79 | 275 | 3.0 | 8.0 | 0.00 | 0.00 | 0.00 | 36 | 1011.1 |
| 20260901222023 | 79 | 266 | 3.0 | 8.0 | 0.00 | 0.00 | 0.00 | 36 | 1011.2 |
| 20260901221556 | 80 | 172 | 3.0 | 8.0 | 0.00 | 0.00 | 0.00 | 35 | 1011.1 |
| 20260901221023 | 80 | 62 | 0.0 | 8.0 | 0.00 | 0.00 | 0.00 | 34 | 1011.3 |
| 20260901220523 | 79 | 260 | 3.0 | 10.0 | 0.00 | 0.00 | 0.00 | 35 | 1011.4 |
| 20260901220023 | 80 | 232 | 7.0 | 10.0 | 0.00 | 0.00 | 0.00 | 35 | 1011.4 |
| 20260901215522 | 79 | 314 | 2.0 | 6.0 | 0.00 | 0.00 | 0.00 | 35 | 1011.4 |
| 20260901215027 | 78 | 255 | 1.0 | 8.0 | 0.00 | 0.00 | 0.00 | 38 | 1011.5 |
| 20260901214520 | 78 | 332 | 3.0 | 8.0 | 0.00 | 0.00 | 0.00 | 37 | 1011.6 |
| 20260901214023 | 79 | 244 | 2.0 | 8.0 | 0.00 | 0.00 | 0.00 | 36 | 1011.7 |
| 20260901213520 | 79 | 193 | 5.0 | 8.0 | 0.00 | 0.00 | 0.00 | 36 | 1011.8 |
| 20260901213019 | 78 | 158 | 1.0 | 10.0 | 0.00 | 0.00 | 0.00 | 36 | 1011.8 |
| 20260901212518 | 78 | 274 | 3.0 | 9.0 | 0.00 | 0.00 | 0.00 | 38 | 1011.9 |
| 20260901212021 | 78 | 349 | 3.0 | 9.0 | 0.00 | 0.00 | 0.00 | 39 | 1011.9 |
| 20260901211527 | 78 | 220 | 4.0 | 9.0 | 0.00 | 0.00 | 0.00 | 38 | 1011.9 |
| 20260901211017 | 77 | 226 | 1.0 | 9.0 | 0.00 | 0.00 | 0.00 | 40 | 1012.0 |
| 20260901210517 | 77 | 249 | 3.0 | 11.0 | 0.00 | 0.00 | 0.00 | 40 | 1012.1 |
| 20260901210019 | 77 | 246 | 3.0 | 11.0 | 0.00 | 0.00 | 0.00 | 39 | 1012.1 |
| 20260901205518 | 77 | 253 | 3.0 | 10.0 | 0.00 | 0.00 | 0.00 | 39 | 1012.1 |
| 20260901205016 | 77 | 258 | 5.0 | 9.0 | 0.00 | 0.00 | 0.00 | 39 | 1012.1 |
| 20260901204518 | 77 | 152 | 3.0 | 14.0 | 0.00 | 0.00 | 0.00 | 40 | 1012.2 |
| 20260901204015 | 76 | 283 | 6.0 | 14.0 | 0.00 | 0.00 | 0.00 | 40 | 1012.2 |
| 20260901203514 | 76 | 266 | 4.0 | 11.0 | 0.00 | 0.00 | 0.00 | 40 | 1012.3 |
| 20260901203029 | 76 | 266 | 6.0 | 11.0 | 0.00 | 0.00 | 0.00 | 40 | 1012.3 |
| 20260901202513 | 76 | 185 | 4.0 | 8.0 | 0.00 | 0.00 | 0.00 | 41 | 1012.3 |
| 20260901202017 | 76 | 255 | 4.0 | 9.0 | 0.00 | 0.00 | 0.00 | 42 | 1012.4 |
| 20260901201529 | 76 | 278 | 2.0 | 6.0 | 0.00 | 0.00 | 0.00 | 42 | 1012.3 |
| 20260901201012 | 75 | 68 | 1.0 | 8.0 | 0.00 | 0.00 | 0.00 | 45 | 1012.3 |
| 20260901200511 | 75 | 253 | 4.0 | 10.0 | 0.00 | 0.00 | 0.00 | 44 | 1012.5 |
| 20260901200012 | 75 | 255 | 3.0 | 8.0 | 0.00 | 0.00 | 0.00 | 45 | 1012.5 |
| 20260901195511 | 76 | 287 | 3.0 | 7.0 | 0.00 | 0.00 | 0.00 | 44 | 1012.5 |
| 20260901195012 | 75 | 210 | 1.0 | 4.0 | 0.00 | 0.00 | 0.00 | 43 | 1012.6 |
| 20260901194509 | 74 | 64 | 1.0 | 6.0 | 0.00 | 0.00 | 0.00 | 45 | 1012.7 |
| 20260901194011 | 74 | 31 | 3.0 | 6.0 | 0.00 | 0.00 | 0.00 | 46 | 1012.8 |
| 20260901193507 | 74 | 287 | 2.0 | 7.0 | 0.00 | 0.00 | 0.00 | 46 | 1012.8 |
| 20260901193007 | 73 | 244 | 2.0 | 7.0 | 0.00 | 0.00 | 0.00 | 46 | 1012.8 |
| 20260901192506 | 73 | 235 | 1.0 | 6.0 | 0.00 | 0.00 | 0.00 | 47 | 1012.9 |
| 20260901192004 | 73 | 285 | 2.0 | 8.0 | 0.00 | 0.00 | 0.00 | 46 | 1013.0 |
| 20260901191509 | 73 | 101 | 1.0 | 10.0 | 0.00 | 0.00 | 0.00 | 48 | 1013.0 |
| 20260901191006 | 72 | 249 | 5.0 | 10.0 | 0.00 | 0.00 | 0.00 | 49 | 1013.0 |
| 20260901190501 | 72 | 282 | 1.0 | 6.0 | 0.00 | 0.00 | 0.00 | 49 | 1013.1 |
| 20260901190002 | 72 | 285 | 3.0 | 8.0 | 0.00 | 0.00 | 0.00 | 49 | 1013.1 |
| 20260901185601 | 71 | 91 | 2.0 | 9.0 | 0.00 | 0.00 | 0.00 | 50 | 1013.2 |
| 20260901185100 | 71 | 264 | 4.0 | 9.0 | 0.00 | 0.00 | 0.00 | 50 | 1013.1 |
| 20260901184606 | 71 | 171 | 2.0 | 9.0 | 0.00 | 0.00 | 0.00 | 52 | 1013.1 |
| 20260901184057 | 70 | 268 | 5.0 | 9.0 | 0.00 | 0.00 | 0.00 | 51 | 1013.2 |
| 20260901183556 | 71 | 343 | 0.0 | 11.0 | 0.00 | 0.00 | 0.00 | 50 | 1013.2 |
| 20260901183058 | 72 | 318 | 3.0 | 11.0 | 0.00 | 0.00 | 0.00 | 49 | 1013.2 |
| 20260901182554 | 72 | 145 | 2.0 | 8.0 | 0.00 | 0.00 | 0.00 | 50 | 1013.3 |
| 20260901182053 | 70 | 16 | 2.0 | 10.0 | 0.00 | 0.00 | 0.00 | 53 | 1013.4 |
| 20260901181553 | 69 | 302 | 2.0 | 12.0 | 0.00 | 0.00 | 0.00 | 54 | 1013.5 |
| 20260901181050 | 69 | 349 | 4.0 | 12.0 | 0.00 | 0.00 | 0.00 | 53 | 1013.6 |
| 20260901180554 | 68 | 279 | 4.0 | 9.0 | 0.00 | 0.00 | 0.00 | 52 | 1013.7 |
| 20260901180048 | 68 | 354 | 3.0 | 12.0 | 0.00 | 0.00 | 0.00 | 54 | 1013.6 |
| 20260901175549 | 69 | 253 | 6.0 | 12.0 | 0.00 | 0.00 | 0.00 | 54 | 1013.6 |
| 20260901175046 | 68 | 264 | 2.0 | 9.0 | 0.00 | 0.00 | 0.00 | 56 | 1013.6 |
| 20260901174546 | 68 | 256 | 5.0 | 9.0 | 0.00 | 0.00 | 0.00 | 56 | 1013.5 |
| 20260901174044 | 68 | 278 | 3.0 | 8.0 | 0.00 | 0.00 | 0.00 | 56 | 1013.4 |
| 20260901173543 | 68 | 340 | 3.0 | 8.0 | 0.00 | 0.00 | 0.00 | 58 | 1013.4 |
| 20260901173042 | 67 | 314 | 2.0 | 10.0 | 0.00 | 0.00 | 0.00 | 58 | 1013.4 |
| 20260901172541 | 66 | 47 | 2.0 | 10.0 | 0.00 | 0.00 | 0.00 | 59 | 1013.4 |
| 20260901172040 | 66 | 333 | 4.0 | 9.0 | 0.00 | 0.00 | 0.00 | 59 | 1013.4 |
| 20260901171539 | 66 | 327 | 3.0 | 9.0 | 0.00 | 0.00 | 0.00 | 59 | 1013.5 |
| 20260901171038 | 66 | 270 | 4.0 | 9.0 | 0.00 | 0.00 | 0.00 | 61 | 1013.4 |
| 20260901170536 | 66 | 267 | 5.0 | 9.0 | 0.00 | 0.00 | 0.00 | 60 | 1013.5 |
| 20260901170036 | 65 | 343 | 3.0 | 9.0 | 0.00 | 0.00 | 0.00 | 61 | 1013.5 |
| 20260901165533 | 65 | 294 | 5.0 | 9.0 | 0.00 | 0.00 | 0.00 | 61 | 1013.4 |
| 20260901165032 | 65 | 245 | 5.0 | 8.0 | 0.00 | 0.00 | 0.00 | 61 | 1013.4 |
| 20260901164531 | 65 | 345 | 2.0 | 10.0 | 0.00 | 0.00 | 0.00 | 62 | 1013.4 |
| 20260901164030 | 65 | 345 | 5.0 | 11.0 | 0.00 | 0.00 | 0.00 | 62 | 1013.4 |
| 20260901163527 | 64 | 268 | 6.0 | 11.0 | 0.00 | 0.00 | 0.00 | 62 | 1013.3 |
| 20260901163026 | 64 | 278 | 2.0 | 9.0 | 0.00 | 0.00 | 0.00 | 63 | 1013.3 |
| 20260901162526 | 64 | 263 | 3.0 | 12.0 | 0.00 | 0.00 | 0.00 | 63 | 1013.2 |
| 20260901162023 | 64 | 256 | 6.0 | 9.0 | 0.00 | 0.00 | 0.00 | 64 | 1013.1 |
| 20260901161534 | 64 | 252 | 3.0 | 8.0 | 0.00 | 0.00 | 0.00 | 65 | 1013.1 |
| 20260901161023 | 63 | 270 | 3.0 | 11.0 | 0.00 | 0.00 | 0.00 | 65 | 1013.0 |
| 20260901160520 | 63 | 253 | 6.0 | 11.0 | 0.00 | 0.00 | 0.00 | 65 | 1013.0 |
| 20260901160033 | 63 | 253 | 3.0 | 10.0 | 0.00 | 0.00 | 0.00 | 66 | 1013.1 |
| 20260901155517 | 63 | 332 | 4.0 | 10.0 | 0.00 | 0.00 | 0.00 | 66 | 1013.1 |